星链-1247 (STARLINK-1247 )

导读 | 豆包AI

STARLINK-1247是美国太空探索技术公司SpaceX星链星座的卫星成员,于2020年2月17日发射升空,运行在近地轨道。星链项目旨在构建全球卫星互联网系统,为全球范围内地面网络覆盖不足的区域提供高速宽带接入服务,该卫星为后续星链扩网和全球联网服务提供基础设施支撑。

基本信息
目录编号:
45236
目录名称:
STARLINK-1247
国际标识:
2020-012BL
轨道中心:
EARTH
卫星名称:
星链-1247
卫星全名:
星链-1247 (STARLINK-1247 )
卫星状态:
已陨落 最后检测时间 2025-10-08
发射日期:
2020-02-17 UTC
国别 :
美国 (US)
星等 :
--
轨道信息
数据来源 国际轨道数据
星历时间: 2025-10-08T06:53:34+0800
轨道信息已过期157天
半长轴: 6539.805km
偏心率: 0.0004985
轨道倾角: 53.026°
近地点辐角 223.336°
升交点赤经 266.890°
平近点角 136.729°
近地点: 158.409km
远地点: 164.931km
周期: 87.722分钟
每日圈数: 16.415558
详细信息
固有亮度:
5
最大亮度:
2.5
卫星平台:
Starlink V1.0
覆盖范围:
全球
运营商:
太空探索技术公司
运营商所在国:
美国
制造商(研发单位):
太空探索技术公司
制造商所在国:
美国
使用方式:
暂无
卫星简介
星链(Starlink)计划是由太空探索技术公司(SpaceX)提出的一个巨型低轨卫星互联网星座项目,计划在2019年至2024年间在太空搭建由约1.2万颗卫星组成的“星链”网络,其中1584颗将部署在地球上空550千米处的近地轨道,并从2020年开始工作。该卫星仍在工作。